User: anonymous   Login
Location: Unspecified
(0.0000°N, 0.0000°E)
Time: 18:25:13
(UTC+00:00)
Language:

Meteor 1-23 - Orbit

View from above orbital plane
View from above orbital plane
View from above satellite
View from above satellite

Ground track
Ground track

The orbit data is extracted from the following two-line orbital elements,

1  8519U 75124A   18109.77336711 +.00000068 +00000-0 +30743-4 0  9991
2  8519 081.2430 149.9754 0014776 127.0333 233.2193 14.10783135176590
Epoch (UTC): 19 April 2018 18:33:38
Eccentricity: 0.0014776
inclination: 81.2430°
perigee height: 846 km
apogee height: 867 km
right ascension of ascending node: 149.9754°
argument of perigee: 127.0333°
revolutions per day: 14.10783135
mean anomaly at epoch: 233.2193°
orbit number at epoch: 17659

The dashed part of the orbit path shows where the satellite is in the earth's shadow,  

DLR